Regional Weather Roundup
Issued by NWS

Home | Current Version | Previous Version | Text Only | Print | Product List | Glossary Off
Versions: 1 2 3 4 5 6 7 8 9 10 11 12 13 14 15 16 17 18 19 20 21 22 23 24 25 26 27 28 29 30 31 32 33 34 35 36 37 38 39 40 41 42 43 44 45 46 47 48 49 50

000
ASUS45 KBOI 241510
RWRID

IDAHO REGIONAL WEATHER ROUNDUP
NATIONAL WEATHER SERVICE BOISE ID
900 AM MDT TUE APR 24 2018

NOTE: "FAIR" INDICATES FEW OR NO CLOUDS BELOW 12000 FEET
WITH NO SIGNIFICANT WEATHER AND/OR OBSTRUCTIONS TO VISIBILITY

IDZ012-014-241600-
SOUTHWEST IDAHO


CITY           SKY/WX    TMP DP  RH WIND       PRES   REMARKS
BOISE          SUNNY     49  32  52 SE13G21   30.38R
CALDWELL       SUNNY     52  33  48 SE15      30.38R
$$

IDZ016-017-241600-
SOUTHCENTRAL IDAHO


CITY           SKY/WX    TMP DP  RH WIND       PRES   REMARKS
BURLEY         SUNNY     43  27  53 E12G25    30.38S
JEROME         SUNNY     45  28  51 E21G28    30.37S
TWIN FALLS     SUNNY     45  26  47 E21G29    30.38R
$$

IDZ019>023-241600-
SOUTHEAST IDAHO


CITY           SKY/WX    TMP DP  RH WIND       PRES   REMARKS
IDAHO FALLS    SUNNY     38  26  62 N15       30.41R WCI  29
POCATELLO      SUNNY     40  29  64 NE20      30.39S WCI  30
REXBURG        SUNNY     39  24  55 NE8       30.40S WCI  33
$$

IDZ006-010-011-018-031-032-241600-
CENTRAL IDAHO MOUNTAINS


CITY           SKY/WX    TMP DP  RH WIND       PRES   REMARKS
MCCALL         SUNNY     38  28  67 CALM      30.36S
HAILEY         SUNNY     39  28  65 NW7       30.39S WCI  34
STANLEY          N/A     32  26  78 CALM      30.42S
SALMON         SUNNY     37  27  67 CALM      30.50S
CHALLIS        SUNNY     39  25  57 CALM      30.44S
$$

IDZ002-004-006-007-026-241600-
NORTHERN IDAHO


CITY           SKY/WX    TMP DP  RH WIND       PRES   REMARKS
LEWISTON       SUNNY     48  35  60 S6        30.38F
LOWELL           N/A     39  34  82 N3        30.46F
COEUR D`ALENE  SUNNY     45  30  55 NE15      30.43S
MULLAN PASS    SUNNY     34  21  59 SE10G23   30.40R WCI  26
$$



USA.gov is the U.S. government's official web portal to all federal, state and local government web resources and services.